Date_and_time,latitude,longitude,wind_speed,RelWindDirFrom,WindDirFrom,air_pressure,air_temperature,relative_humidity,Temp,platform_speed_wrt_ground,air_pressure_at_mean_sea_level,platform_orientation
2018-07-18 23:40,53.2686416666667,-98.3121733333333,11.9,13.1,164,980.65,24.1,57,17.67,11.0,1006.13,198.0
2018-07-18 23:50,53.2389266666667,-98.3226466666667,11.6,12.6,161,980.60,22.8,72,18.56,10.9,1006.15,198.0
2018-07-19 00:00,53.209125,-98.33369,11.1,11.8,156,980.53,22.8,73,18.75,11.0,1006.09,195.7
2018-07-19 00:10,53.1791966666667,-98.344835,11.6,12.9,151,980.43,22.1,82,18.60,11.0,1006.02,195.7
2018-07-19 00:20,53.14942,-98.35639,11.2,11.8,153,980.45,21.7,81,18.63,11.0,1006.07,195.7
2018-07-19 00:30,53.1195716666667,-98.3676416666667,11.2,12.5,145,980.48,21.3,83,18.69,11.0,1006.10,195.7
2018-07-19 00:40,53.0893566666667,-98.37696,11.1,12.7,142,980.37,21.1,82,18.60,11.1,1006.01,195.7
2018-07-19 00:50,53.05858,-98.385445,12.8,15.4,148,980.22,20.7,84,18.63,11.2,1005.89,195.7
2018-07-19 01:00,53.0294816666667,-98.4005066666667,10.9,13.4,143,980.23,21.1,79,19.24,11.0,1005.89,192.4
2018-07-19 01:10,53.00786,-98.43673,8.4,11.5,168,980.40,21.5,77,19.55,11.1,1006.01,192.4
2018-07-19 01:20,52.99649,-98.48378,1.3,7.2,111,980.17,21.5,79,19.37,11.0,1005.71,192.4
2018-07-19 01:30,52.9766533333333,-98.52336,6.5,9.3,153,980.10,21.0,82,18.92,11.2,1005.61,192.4
2018-07-19 01:40,52.9735816666667,-98.5730016666667,3.1,7.3,360,979.87,21.1,83,18.59,10.8,1005.43,192.4
2018-07-19 01:50,52.975175,-98.5982316666667,7.3,13.5,58,979.61,20.9,84,18.65,5.5,1005.17,192.4
2018-07-19 02:00,52.9750533333333,-98.598175,11.8,13.7,76,979.30,21.0,84,18.86,0.0,1004.88,205.5
2018-07-19 02:10,52.9750716666667,-98.59814,10.6,11.9,70,979.50,21.0,84,18.89,0.0,1005.10,205.5
2018-07-19 02:20,52.9750366666667,-98.598185,10.5,11.4,71,979.70,21.4,78,18.89,0.0,1005.31,205.5
2018-07-19 02:30,52.9750483333333,-98.59816,9.3,11.5,67,979.74,22.0,71,18.90,0.0,1005.33,205.5
2018-07-19 02:40,52.9750566666667,-98.59816,6.4,7.8,63,979.97,22.6,66,18.91,0.0,1005.56,205.5
2018-07-19 02:50,52.975075,-98.59815,5.0,7.9,55,980.12,22.8,63,18.92,0.0,1005.69,205.5
2018-07-19 03:00,52.9749966666667,-98.5981333333333,4.7,6.5,42,980.31,22.9,61,18.93,0.0,1005.85,214.3
2018-07-19 03:10,52.9750333333333,-98.5981516666667,6.4,7.9,54,980.29,23.2,59,18.94,0.0,1005.83,214.3
2018-07-19 03:20,52.975115,-98.5981783333333,7.9,9.3,69,980.15,23.3,59,18.95,0.0,1005.70,214.3
2018-07-19 03:30,52.975005,-98.59816,10.5,12.7,71,980.09,22.7,63,18.96,0.0,1005.66,214.3
2018-07-19 03:40,52.9749966666667,-98.5980933333333,7.5,9.2,52,980.27,22.9,60,18.97,0.0,1005.84,214.3
2018-07-19 03:50,52.974235,-98.5964433333333,14.2,36.4,324,981.36,22.8,63,18.96,0.5,1006.96,214.3
2018-07-19 04:00,52.97427,-98.5963366666667,22.6,34.8,333,981.23,22.4,67,18.89,0.0,1006.85,245.0
2018-07-19 04:10,52.9742816666667,-98.5963,21.4,29.9,336,981.77,20.9,81,18.89,0.0,1007.45,245.0
2018-07-19 04:20,52.9742266666667,-98.5964566666667,20.9,30.2,338,981.87,19.8,92,18.91,0.0,1007.57,245.0
2018-07-19 04:30,52.9742316666667,-98.5964416666667,22.3,28.3,337,981.95,19.3,96,18.91,0.0,1007.65,245.0
2018-07-19 04:40,52.9742116666667,-98.596615,21.0,27.7,348,982.06,18.9,96,18.90,0.0,1007.77,245.0
2018-07-19 04:50,52.9742333333333,-98.5970583333333,17.9,23.6,13,981.51,19.1,92,18.88,0.1,1007.19,245.0
2018-07-19 05:00,52.9742866666667,-98.5971766666667,17.3,24.3,28,980.72,19.2,88,18.87,0.0,1006.36,142.3
2018-07-19 05:10,52.9742633333333,-98.5972433333333,16.8,23.5,42,980.20,19.3,86,18.88,0.0,1005.82,142.3
2018-07-19 05:20,52.9743166666667,-98.5973416666667,16.3,21.6,30,980.36,19.7,81,18.88,0.0,1006.00,142.3
2018-07-19 05:30,52.97434,-98.59734,15.3,20.3,44,979.99,19.8,80,18.87,0.0,1005.61,142.3
2018-07-19 05:40,52.97442,-98.5975,15.4,20.2,49,979.84,19.5,81,18.86,0.0,1005.47,142.3
2018-07-19 05:50,52.9743183333333,-98.5973733333333,17.9,24.0,49,979.33,19.6,78,18.86,0.0,1004.95,142.3
2018-07-19 06:00,52.97454,-98.59764,18.9,27.2,66,978.45,19.5,79,18.86,0.1,1004.13,146.0
2018-07-19 06:10,52.9745883333333,-98.597765,23.0,29.1,80,977.32,20.0,73,18.87,0.0,1003.00,146.0
2018-07-19 06:20,52.9746633333333,-98.5977966666667,22.6,27.6,83,977.03,19.7,81,18.85,0.0,1002.73,146.0
2018-07-19 06:30,52.9748,-98.59782,19.9,24.5,89,977.37,19.2,87,18.80,0.0,1003.12,146.0
2018-07-19 06:40,52.9745983333333,-98.5977816666667,17.1,23.5,83,977.79,19.1,88,18.74,0.1,1003.55,146.0
2018-07-19 06:50,52.9745416666667,-98.5977566666667,15.0,18.9,72,978.18,19.2,86,18.70,0.0,1003.94,146.0
2018-07-19 07:00,52.9746266666667,-98.5977466666667,6.8,16.3,37,979.15,19.3,84,18.67,0.0,1004.93,292.8
2018-07-19 07:10,52.9746166666667,-98.5977616666667,6.1,11.2,55,979.28,19.2,84,18.66,0.0,1005.04,292.8
2018-07-19 07:20,52.9746,-98.597755,6.3,9.1,45,979.31,19.0,85,18.64,0.0,1005.08,292.8
2018-07-19 07:30,52.9745933333333,-98.5977433333333,9.3,14.2,71,979.25,18.9,87,18.63,0.0,1005.04,292.8
2018-07-19 07:40,52.974415,-98.597285,7.2,11.5,337,979.90,18.6,89,18.62,0.1,1005.71,292.8
2018-07-19 07:50,52.9744283333333,-98.5974933333333,8.1,10.2,332,980.17,18.3,91,18.60,0.0,1006.01,292.8
2018-07-19 08:00,52.974385,-98.5974066666667,10.0,13.3,360,980.10,18.0,96,18.59,0.0,1005.93,307.4
2018-07-19 08:10,52.9743566666667,-98.5974183333333,10.6,13.5,7,980.11,17.8,98,18.58,0.0,1005.95,307.4
2018-07-19 08:20,52.97435,-98.5974033333333,11.0,14.1,7,980.31,17.6,99,18.57,0.0,1006.20,307.4
2018-07-19 08:30,52.9743783333333,-98.597395,10.5,14.0,6,980.63,17.5,99,18.56,0.0,1006.54,307.4
2018-07-19 08:40,52.974395,-98.5973916666667,10.3,14.4,11,980.79,17.5,99,18.56,0.0,1006.69,307.4
2018-07-19 08:50,52.9743966666667,-98.5974583333333,9.9,13.4,10,980.80,17.4,99,18.55,0.0,1006.71,307.4
2018-07-19 09:00,52.97436,-98.5974166666667,10.5,15.0,12,980.72,17.5,97,18.56,0.0,1006.62,144.2
2018-07-19 09:10,52.9744066666667,-98.5975166666667,11.6,14.2,21,980.44,17.5,95,18.56,0.0,1006.34,144.2
2018-07-19 09:20,52.9744316666667,-98.597495,11.2,15.0,20,980.53,17.6,94,18.55,0.0,1006.43,144.2
2018-07-19 09:30,52.9744783333333,-98.597665,11.1,13.8,28,980.49,17.6,94,18.55,0.0,1006.41,144.2
2018-07-19 09:40,52.9743933333333,-98.5975333333333,11.7,14.4,27,980.36,17.6,93,18.54,0.0,1006.29,144.2
2018-07-19 09:50,52.9744033333333,-98.5975283333333,11.5,14.9,24,980.33,17.6,93,18.53,0.0,1006.27,144.2
2018-07-19 10:00,52.97436,-98.5974216666667,11.8,16.2,17,980.40,17.5,94,18.52,0.0,1006.35,142.9
2018-07-19 10:10,52.9743783333333,-98.5975133333333,12.6,16.7,17,980.22,17.3,95,18.52,0.0,1006.19,142.9
2018-07-19 10:20,52.9743516666667,-98.597405,12.4,16.0,14,980.15,17.2,96,18.56,0.0,1006.13,142.9
2018-07-19 10:30,52.97438,-98.59742,12.4,17.3,18,980.20,17.2,99,18.58,0.0,1006.18,142.9
2018-07-19 10:40,52.97434,-98.5973816666667,12.9,17.0,22,980.22,17.2,99,18.60,0.0,1006.20,142.9
2018-07-19 10:50,52.9743583333333,-98.597425,13.1,17.6,27,980.27,17.3,99,18.61,0.0,1006.24,142.9
2018-07-19 11:00,52.974415,-98.5975716666667,12.5,17.5,32,980.33,17.3,99,18.61,0.0,1006.31,285.3
2018-07-19 11:10,52.97447,-98.5973616666667,12.1,16.4,31,980.32,17.3,99,18.62,0.0,1006.29,285.3
2018-07-19 11:20,52.9676183333333,-98.5727966666667,14.5,21.9,49,980.38,17.2,99,18.58,5.9,1006.36,285.3
2018-07-19 11:30,52.9533816666667,-98.5270733333333,18.8,21.6,61,980.51,17.3,99,17.99,11.2,1006.48,285.3
2018-07-19 11:40,52.9390616666667,-98.4821916666667,19.2,21.8,59,980.64,17.4,99,17.66,11.0,1006.62,285.3
2018-07-19 11:50,52.9247583333333,-98.4378583333333,19.5,22.4,58,980.56,17.6,99,17.68,10.9,1006.53,285.3
2018-07-19 12:00,52.9120083333333,-98.3926516666667,20.0,22.5,58,980.34,17.7,99,17.74,10.8,1006.31,116.7
2018-07-19 12:10,52.89758,-98.348575,19.7,23.0,61,980.29,17.6,99,17.50,10.9,1006.26,116.7
2018-07-19 12:20,52.88323,-98.3042483333333,19.1,20.9,60,980.35,17.4,99,17.10,10.9,1006.34,116.7
2018-07-19 12:30,52.869355,-98.2594133333333,17.9,21.5,59,980.44,17.2,100,16.86,10.9,1006.43,116.7
2018-07-19 12:40,52.86724,-98.2495433333333,14.1,17.6,35,980.44,17.2,100,16.73,2.3,1006.43,116.7
2018-07-19 12:50,52.8672233333333,-98.2496333333333,14.8,17.2,28,980.55,17.2,99,16.69,0.0,1006.55,116.7
2018-07-19 13:00,52.867195,-98.249585,16.0,18.6,29,980.58,17.3,99,16.68,0.0,1006.57,116.9
2018-07-19 13:10,52.858265,-98.2512516666667,13.9,19.8,33,980.90,17.3,96,16.64,3.2,1006.90,116.9
2018-07-19 13:20,52.8277583333333,-98.2398133333333,9.9,12.6,54,981.33,17.0,96,16.47,11.3,1007.36,116.9
2018-07-19 13:30,52.7973833333333,-98.2277783333333,9.8,13.3,54,981.34,16.8,97,16.52,11.2,1007.37,116.9
2018-07-19 13:40,52.767045,-98.2145966666667,10.5,13.9,55,981.31,16.9,96,16.65,11.3,1007.32,116.9
2018-07-19 13:50,52.7366316666667,-98.201335,10.3,14.2,52,981.29,17.0,94,16.53,11.3,1007.30,116.9
2018-07-19 14:00,52.706355,-98.18702,10.5,15.3,54,981.33,16.9,94,16.42,11.3,1007.34,137.1
2018-07-19 14:10,52.675835,-98.1736766666667,9.4,12.2,58,981.35,16.8,95,16.35,11.4,1007.38,137.1
2018-07-19 14:20,52.6454733333333,-98.1598366666667,9.8,13.3,60,981.24,16.8,96,16.32,11.3,1007.28,137.1
2018-07-19 14:30,52.615055,-98.14744,10.4,13.4,64,981.21,16.7,96,16.32,11.3,1007.25,137.1
2018-07-19 14:40,52.601795,-98.1432683333333,13.4,17.6,40,980.86,16.7,97,16.52,4.9,1006.89,137.1
2018-07-19 14:50,52.5987283333333,-98.146005,14.9,18.2,23,981.10,16.7,97,16.66,1.3,1007.13,137.1
2018-07-19 15:00,52.5998466666667,-98.129355,18.0,25.7,34,980.64,17.2,94,16.62,3.7,1006.64,152.8
2018-07-19 15:10,52.6053933333333,-98.080355,22.6,25.7,47,979.98,16.9,98,16.61,10.9,1005.99,152.8
2018-07-19 15:20,52.6108183333333,-98.0310366666667,22.4,24.5,52,980.12,17.0,96,16.54,11.0,1006.13,152.8
2018-07-19 15:30,52.6163583333333,-97.981515,22.4,25.6,53,980.16,17.2,95,16.45,11.0,1006.17,152.8
2018-07-19 15:40,52.6213166666667,-97.9319233333333,22.4,24.6,52,980.13,17.4,94,16.61,11.0,1006.12,152.8
2018-07-19 15:50,52.626335,-97.88256,21.6,24.1,52,980.24,17.5,94,16.91,10.9,1006.23,152.8
2018-07-19 16:00,52.631315,-97.8331583333333,20.8,22.7,50,980.46,17.8,92,17.25,10.9,1006.45,132.9
2018-07-19 16:10,52.6364816666667,-97.783645,19.1,21.4,47,980.83,18.0,91,17.58,11.0,1006.82,132.9
2018-07-19 16:20,52.6418133333333,-97.73497,17.9,19.3,43,981.08,18.2,91,17.85,10.8,1007.07,132.9
2018-07-19 16:30,52.642405,-97.7347883333333,9.8,15.1,16,981.69,18.4,92,17.93,0.2,1007.68,132.9
2018-07-19 16:40,52.64241,-97.7347933333333,11.9,15.4,1,981.82,18.2,92,17.93,0.0,1007.83,132.9
2018-07-19 16:50,52.6425816666667,-97.7346466666667,12.4,15.3,9,981.80,18.0,93,17.97,0.1,1007.79,132.9
2018-07-19 17:00,52.6203466666667,-97.7153566666667,7.2,17.6,40,982.22,17.7,94,17.97,9.0,1008.25,106.5
2018-07-19 17:10,52.5913983333333,-97.6963083333333,5.3,8.9,49,982.41,17.8,94,17.88,11.2,1008.44,106.5
2018-07-19 17:20,52.5625416666667,-97.6766766666667,4.9,7.4,69,982.49,17.9,94,17.81,11.2,1008.52,106.5
2018-07-19 17:30,52.534325,-97.65482,4.5,7.7,49,982.51,17.9,95,17.72,11.2,1008.52,106.5
2018-07-19 17:40,52.5063616666667,-97.633005,3.4,5.6,35,982.57,18.0,96,17.69,11.1,1008.58,106.5
2018-07-19 17:50,52.478395,-97.6112666666667,3.1,5.9,27,982.58,18.1,96,17.84,11.1,1008.56,106.5
2018-07-19 18:00,52.4504566666667,-97.5888666666667,3.0,5.4,25,982.52,18.3,95,18.03,11.2,1008.49,114.2
2018-07-19 18:10,52.4225533333333,-97.5660433333333,3.9,6.5,21,982.57,18.2,96,17.96,11.2,1008.53,114.2
2018-07-19 18:20,52.394595,-97.5441033333333,3.3,5.6,26,982.62,18.3,96,18.44,11.2,1008.57,114.2
2018-07-19 18:30,52.3664666666667,-97.5226933333333,4.0,7.5,8,982.51,18.5,95,18.61,11.2,1008.46,114.2
2018-07-19 18:40,52.34151,-97.5012466666667,7.3,11.0,12,982.30,18.5,95,18.82,10.1,1008.25,114.2
2018-07-19 18:50,52.3321483333333,-97.4920116666667,11.9,16.6,0,982.18,18.7,94,19.16,3.9,1008.13,114.2
2018-07-19 19:00,52.3201316666667,-97.4920216666667,10.9,17.9,351,982.20,19.2,91,19.31,4.3,1008.12,146.1
2018-07-19 19:10,52.2889283333333,-97.4912866666667,3.8,8.7,3,982.58,19.8,83,19.44,11.2,1008.49,146.1
2018-07-19 19:20,52.2577983333333,-97.487005,6.5,10.7,13,982.63,19.7,80,19.46,11.2,1008.54,146.1
2018-07-19 19:30,52.2266283333333,-97.4811516666667,6.2,11.3,1,982.58,20.0,81,19.56,11.3,1008.47,146.1
2018-07-19 19:40,52.1955483333333,-97.475355,6.3,9.7,9,982.59,19.5,84,19.70,11.3,1008.50,146.1
2018-07-19 19:50,52.1643716666667,-97.47005,7.9,11.8,9,982.55,19.7,80,19.61,11.3,1008.45,146.1
2018-07-19 20:00,52.1342933333333,-97.4768733333333,7.5,12.5,347,982.55,20.4,78,19.70,10.9,1008.41,163.2
2018-07-19 20:10,52.1258666666667,-97.4912783333333,14.8,26.7,344,982.16,20.4,80,20.00,4.4,1008.01,163.2
2018-07-19 20:20,52.1257433333333,-97.4911083333333,16.6,19.8,355,982.35,19.7,79,19.49,0.1,1008.23,163.2
2018-07-19 20:30,52.1254966666667,-97.4912666666667,16.2,20.0,353,982.55,19.5,80,19.24,0.1,1008.44,163.2
2018-07-19 20:40,52.125515,-97.49122,16.6,20.1,355,982.39,19.4,83,19.35,0.0,1008.27,163.2
2018-07-19 20:50,52.1255116666667,-97.49116,16.4,19.3,356,982.46,19.3,85,19.46,0.0,1008.32,163.2
2018-07-19 21:00,52.1255066666667,-97.49137,15.8,19.2,354,982.66,19.4,84,19.52,0.0,1008.50,169.6
2018-07-19 21:10,52.1237266666667,-97.491555,16.5,22.1,351,982.43,19.4,87,19.40,0.6,1008.27,169.6
2018-07-19 21:20,52.1061783333333,-97.4510816666667,13.5,17.9,8,982.94,18.9,91,19.81,11.0,1008.80,169.6
2018-07-19 21:30,52.0885933333333,-97.4097716666667,14.4,19.3,13,982.86,18.8,93,19.80,11.1,1008.74,169.6
2018-07-19 21:40,52.06983,-97.3698383333333,12.7,18.5,20,982.86,18.9,94,19.51,11.1,1008.73,169.6
2018-07-19 21:50,52.0527783333333,-97.3318316666667,12.1,17.4,26,982.91,19.0,94,19.40,10.4,1008.75,169.6
2018-07-19 22:00,52.03627,-97.2963483333333,15.5,20.4,37,982.97,20.6,74,19.52,9.9,1008.74,157.0
2018-07-19 22:10,52.025525,-97.249565,17.4,21.6,39,983.02,21.0,73,19.78,11.1,1008.80,157.0
2018-07-19 22:20,52.0155383333333,-97.2017866666667,18.2,21.1,44,982.95,21.2,71,19.98,11.2,1008.73,157.0
2018-07-19 22:30,52.00558,-97.15395,20.1,23.3,48,982.82,21.6,68,20.37,11.2,1008.58,157.0
2018-07-19 22:40,51.9941583333333,-97.1067416666667,20.5,24.4,59,982.48,21.8,67,20.62,11.2,1008.23,157.0
2018-07-19 22:50,51.9772933333333,-97.067005,19.3,25.2,64,982.65,21.8,65,20.66,10.7,1008.40,157.0
2018-07-19 23:00,51.9502633333333,-97.0397183333333,16.3,20.7,73,983.13,21.7,64,20.66,11.5,1008.90,124.2
2018-07-19 23:10,51.9227466666667,-97.0138916666667,14.3,17.7,79,983.10,21.6,65,20.68,11.4,1008.89,124.2
2018-07-19 23:20,51.895395,-96.9883016666667,13.7,16.9,74,983.10,21.6,64,20.67,11.4,1008.90,124.2
2018-07-19 23:30,51.8680883333333,-96.9624816666667,12.2,16.3,69,983.11,21.6,63,20.66,11.4,1008.90,124.2
2018-07-19 23:40,51.84073,-96.936615,11.6,14.6,84,983.15,21.6,65,20.86,11.4,1008.94,124.2
2018-07-19 23:50,51.8134366666667,-96.9101533333333,12.0,16.5,80,983.15,21.6,64,21.04,11.5,1008.88,124.2
